Starlink 1226

operational
NORAD ID: 45229 Int'l Des: 2020-012 Owner: SPXS Country: US Constellation: starlink
LEOCIRCULAR

Über Starlink 1226

Beschreibung wird geladen...

Live-Position

3D-Globus wird geladen...

Nächste Überflüge

Höhenverlauf

Altitude vs Time

uPlot chart will show altitude changes over time

Zweizeiliger Elementsatz

1 45229U 20012BD 26061.00002315 .00005679 00000-0 20369-3 0 9993
2 45229 53.1597 34.3346 0001535 92.3275 28.5876 15.30203638 5764
Epoch: 2. März 2026 • Age: 38 hours

Aktueller Status

Höhe 488.0 km
Geschwindigkeit 7.62 km/s
Subsatellitenpunkt -37.15°S, 25.61°W
Startdatum 17. Feb. 2020
Alter 6 years
Typ internet

Technische Details

Klassifizierung Payload
Masse 260.00 kg
Trockenmasse 248.00 kg
Gesamtmasse 260.00 kg
Länge 0.20 m
Durchmesser 2.80 m
Spannweite 9.00 m
Form Box + pan
Hersteller SPXS
Bus-Typ Starlink
Phasenstatus In Orbit
Besitzer/Staat SPXS/US

Große Konstellationen

Loading constellations...